Location: Eastlake (historical)
(39.0077°N, 122.6678°W)
Time: 13:01:54
(UTC+00:00)

BREEZE M DEB (TANK) - Pass Details

Date: 25 November 2020
Orbit: 289 x 16164 km, 49.5° (Epoch: 25 January)

Event Time Altitude Azimuth Distance (km) Brightness Sun altitude
Rises 13:38:50 0° 228° (SW) 8,871 8.1 -16.5°
Reaches altitude 10° 13:47:21 10° 229° (SW) 5,625 7.1 -14.9°
Maximum altitude 13:58:50 76° 146° (SE) 882 3.4 -12.8°
Drops below altitude 10° 14:02:09 10° 60° (ENE) 1,713 5.5 -12.2°
Sets 14:03:27 0° 58° (ENE) 2,333 6.2 -11.9°
